FW3224 Weather Reports


Display with metric or nautical units.
time (UTC)temp
F
wind
direction
speed
MPH
gust
MPH
rain 1hr
in
rain 24hr
in
rain mn
in
humidity
%
barometer
mb
20260502192547 63 58 0.0 3.0 0.00 0.01 0.00 86 1020.9
20260502192046 64 280 0.0 4.0 0.00 0.01 0.00 86 1020.9
20260502191556 64 42 0.0 4.0 0.00 0.01 0.00 85 1020.9
20260502191050 64 302 0.0 3.0 0.00 0.01 0.00 85 1021.0
20260502190546 64 59 0.0 3.0 0.00 0.01 0.00 85 1021.0
20260502190049 64 294 0.0 5.0 0.00 0.01 0.00 85 1021.0
20260502185544 64 293 1.0 5.0 0.00 0.01 0.00 85 1020.9
20260502185044 64 42 0.0 3.0 0.00 0.01 0.00 85 1020.9
20260502184545 64 339 1.0 3.0 0.00 0.01 0.00 85 1021.0
20260502184045 64 273 0.0 4.0 0.00 0.01 0.00 85 1020.9
20260502183546 64 259 0.0 4.0 0.00 0.01 0.00 85 1020.9
20260502183046 64 311 0.0 4.0 0.00 0.01 0.00 85 1020.9
20260502182543 64 296 0.0 4.0 0.00 0.01 0.00 86 1020.9
20260502182043 64 269 1.0 4.0 0.00 0.01 0.00 86 1020.9
20260502181543 64 34 0.0 3.0 0.00 0.01 0.00 86 1020.9
20260502181043 64 268 0.0 4.0 0.00 0.01 0.00 86 1020.9
20260502180543 64 268 1.0 8.0 0.00 0.01 0.00 86 1021.0
20260502164034 64 165 0.0 2.0 0.00 0.01 0.00 86 1021.3
20260502163534 64 163 0.0 3.0 0.00 0.01 0.00 86 1021.3
20260502163043 64 304 0.0 4.0 0.00 0.01 0.00 86 1021.3
20260502162532 65 162 0.0 3.0 0.00 0.01 0.00 86 1021.5
20260502162036 65 67 1.0 3.0 0.00 0.01 0.00 86 1021.5
20260502161531 65 53 0.0 3.0 0.00 0.01 0.00 86 1021.5
20260502161030 65 286 0.0 3.0 0.00 0.01 0.00 86 1021.5
20260502160530 65 26 1.0 3.0 0.00 0.01 0.00 85 1021.6
20260502152025 65 313 0.0 8.0 0.00 0.01 0.00 85 1021.7
20260502151549 65 342 1.0 6.0 0.00 0.01 0.00 85 1021.7
20260502151025 65 287 1.0 5.0 0.00 0.01 0.00 84 1021.8
20260502150524 65 295 0.0 3.0 0.00 0.01 0.00 84 1021.9
20260502130516 66 296 1.0 5.0 0.00 0.02 0.02 84 1022.6
20260502123514 66 315 0.0 5.0 0.00 0.02 0.02 84 1022.8
20260502123014 66 322 1.0 4.0 0.00 0.02 0.02 84 1022.8
20260502122514 66 134 0.0 4.0 0.00 0.02 0.02 84 1022.9
20260502122015 66 271 0.0 3.0 0.00 0.02 0.02 84 1023.0
20260502121516 66 246 1.0 5.0 0.00 0.02 0.02 84 1023.0
20260502121014 66 339 0.0 5.0 0.00 0.02 0.02 84 1023.1
20260502120514 66 237 0.0 6.0 0.00 0.02 0.02 84 1023.0
20260502115512 66 17 0.0 7.0 0.00 0.02 0.02 85 1023.1
20260502115012 66 269 1.0 7.0 0.00 0.02 0.02 85 1022.9
20260502114512 66 286 0.0 4.0 0.00 0.02 0.02 85 1022.9
20260502114013 66 287 0.0 4.0 0.00 0.02 0.02 84 1023.0
20260502113514 66 60 1.0 5.0 0.00 0.02 0.02 84 1022.9
20260502113012 66 270 2.0 6.0 0.00 0.02 0.02 84 1022.9
20260502112512 67 310 1.0 6.0 0.00 0.02 0.02 83 1023.0
20260502112011 67 355 1.0 4.0 0.00 0.02 0.02 83 1023.0
20260502111511 67 251 1.0 6.0 0.00 0.02 0.02 82 1022.9
20260502111011 67 317 1.0 6.0 0.00 0.02 0.02 82 1023.0
20260502110511 67 24 0.0 4.0 0.00 0.02 0.02 82 1023.1
20260502110012 67 279 0.0 5.0 0.00 0.02 0.02 82 1023.0
20260502105511 67 13 1.0 7.0 0.00 0.02 0.02 82 1023.0
20260502105010 67 313 1.0 7.0 0.00 0.02 0.02 82 1022.9
20260502104510 67 227 0.0 5.0 0.00 0.02 0.02 82 1022.9
20260502104010 67 23 1.0 5.0 0.00 0.02 0.02 81 1022.9
20260502103510 68 40 2.0 5.0 0.00 0.02 0.02 81 1023.0
20260502103009 68 321 2.0 4.0 0.00 0.02 0.02 81 1023.0
20260502102509 68 44 2.0 4.0 0.00 0.02 0.02 81 1022.8
20260502102009 68 340 1.0 5.0 0.00 0.02 0.02 81 1022.7
20260502101508 68 330 2.0 5.0 0.00 0.02 0.02 81 1022.6
20260502101008 68 196 1.0 5.0 0.00 0.02 0.02 81 1022.5
20260502100508 68 15 2.0 6.0 0.00 0.02 0.02 81 1022.5
20260502091506 69 311 2.0 9.0 0.00 0.02 0.02 78 1022.2
20260502091006 69 267 3.0 9.0 0.00 0.02 0.02 79 1022.2
20260502090511 69 355 2.0 7.0 0.00 0.02 0.02 79 1022.2
20260502071502 70 304 1.0 5.0 0.00 0.02 0.02 77 1021.7
20260502071002 70 324 1.0 7.0 0.00 0.02 0.02 76 1021.6
20260502070504 70 265 2.0 7.0 0.00 0.02 0.02 76 1021.6
20260502070002 70 355 1.0 9.0 0.00 0.02 0.02 76 1021.6
20260502065502 71 329 2.0 10.0 0.00 0.02 0.02 76 1021.6
20260502065002 71 273 3.0 10.0 0.00 0.02 0.02 76 1021.5
20260502064501 71 319 1.0 5.0 0.00 0.02 0.02 76 1021.5
20260502064002 71 228 1.0 7.0 0.00 0.02 0.02 76 1021.4
20260502063502 71 318 2.0 7.0 0.00 0.02 0.02 76 1021.4
20260502063002 72 325 1.0 5.0 0.00 0.02 0.02 75 1021.3
20260502062502 72 327 1.0 10.0 0.00 0.02 0.02 75 1021.3
20260502062001 72 198 1.0 10.0 0.00 0.02 0.02 74 1021.4
20260502061601 72 259 1.0 4.0 0.00 0.02 0.02 74 1021.4
20260502061100 72 118 1.0 10.0 0.00 0.02 0.02 73 1021.4
20260502060600 72 292 2.0 10.0 0.00 0.02 0.02 72 1021.4
20260502060100 73 82 2.0 9.0 0.00 0.02 0.02 71 1021.4
20260502060002 73 240 2.0 9.0 0.00 0.02 0.02 71 1021.3
20260502055559 73 310 2.0 8.0 0.00 0.02 0.02 71 1021.3
20260502055059 73 185 2.0 8.0 0.00 0.02 0.02 72 1021.3
20260502054610 73 232 1.0 6.0 0.00 0.02 0.02 72 1021.3
20260502054101 73 109 1.0 9.0 0.00 0.02 0.02 72 1021.4
20260502053559 73 43 2.0 9.0 0.00 0.02 0.02 72 1021.4
20260502053059 73 33 3.0 9.0 0.00 0.02 0.02 72 1021.3
20260502052559 73 44 2.0 8.0 0.00 0.02 0.02 72 1021.3
20260502052102 74 48 2.0 8.0 0.00 0.02 0.02 72 1021.3
20260502051557 74 252 2.0 8.0 0.00 0.02 0.02 72 1021.3
20260502051057 74 331 2.0 12.0 0.00 0.02 0.02 73 1021.4
20260502050557 74 82 2.0 12.0 0.00 0.02 0.02 73 1021.4
20260502050056 74 161 2.0 12.0 0.00 0.02 0.02 73 1021.5
20260502045558 74 61 3.0 12.0 0.00 0.02 0.02 73 1021.5
20260502045057 74 61 3.0 11.0 0.00 0.02 0.02 75 1021.5
20260502044558 74 126 2.0 11.0 0.00 0.02 0.02 74 1021.5
20260502044055 75 281 3.0 11.0 0.00 0.02 0.02 74 1021.6
20260502043556 75 331 2.0 12.0 0.00 0.02 0.02 73 1021.6
20260502043055 75 46 3.0 9.0 0.00 0.02 0.02 73 1021.5
20260502042556 74 80 3.0 12.0 0.00 0.02 0.02 72 1021.6
20260502042054 74 243 3.0 12.0 0.00 0.02 0.02 72 1021.6
20260502041601 74 223 2.0 9.0 0.00 0.02 0.02 74 1021.6
20260502041053 74 107 2.0 8.0 0.00 0.02 0.02 74 1021.7
20260502040555 74 123 1.0 7.0 0.00 0.02 0.02 74 1021.7
20260502040053 74 132 2.0 6.0 0.00 0.02 0.02 73 1021.6
20260502035552 75 47 1.0 7.0 0.00 0.02 0.02 72 1021.7
20260502035052 75 95 3.0 8.0 0.00 0.02 0.02 70 1021.7
20260502034552 76 55 3.0 8.0 0.00 0.02 0.02 67 1021.6
20260502034051 77 112 2.0 9.0 0.00 0.02 0.02 65 1021.8
20260502033549 77 90 2.0 9.0 0.00 0.02 0.02 65 1021.8
20260502033050 77 95 2.0 10.0 0.00 0.02 0.02 64 1021.8
20260502032548 76 300 3.0 10.0 0.00 0.02 0.02 64 1022.0
20260502032048 76 340 2.0 10.0 0.00 0.02 0.02 65 1021.9
20260502031550 76 132 2.0 11.0 0.00 0.02 0.02 65 1022.1
20260502031045 76 279 3.0 11.0 0.00 0.02 0.02 65 1022.0
20260502030546 76 302 5.0 12.0 0.00 0.02 0.02 66 1022.1
20260502030042 76 283 3.0 13.0 0.00 0.02 0.02 68 1022.1
20260502025540 75 300 5.0 13.0 0.00 0.02 0.02 69 1022.3
20260502025038 75 297 6.0 11.0 0.00 0.02 0.02 70 1022.4
20260502024539 75 275 4.0 11.0 0.00 0.02 0.02 71 1022.5
20260502024038 75 334 3.0 11.0 0.00 0.02 0.02 70 1022.6
20260502023535 75 322 2.0 9.0 0.00 0.02 0.02 71 1022.7
20260502023046 74 294 3.0 11.0 0.00 0.02 0.02 73 1022.8
20260502022533 73 303 3.0 11.0 0.00 0.02 0.02 73 1022.9
20260502022035 73 290 4.0 11.0 0.00 0.02 0.02 72 1022.9
20260502021531 73 201 1.0 11.0 0.00 0.02 0.02 74 1022.9
20260502021030 73 330 3.0 10.0 0.00 0.02 0.02 74 1023.0
20260502020536 73 276 2.0 7.0 0.00 0.02 0.02 76 1023.2
20260502020027 73 334 1.0 4.0 0.00 0.02 0.02 77 1023.3
20260502015527 72 38 1.0 6.0 0.00 0.02 0.02 79 1023.4
20260502015028 72 71 1.0 8.0 0.00 0.02 0.02 79 1023.6
20260502014523 72 279 1.0 8.0 0.00 0.02 0.02 78 1023.9
20260502014022 72 343 1.0 11.0 0.00 0.02 0.02 78 1023.9
20260502013521 72 295 1.0 11.0 0.00 0.02 0.02 79 1023.9
20260502013020 71 347 1.0 8.0 0.00 0.02 0.02 79 1024.0
20260502012519 71 336 3.0 10.0 0.00 0.02 0.02 78 1024.1
20260502012018 71 344 3.0 8.0 0.00 0.02 0.02 79 1024.2
20260502011519 71 58 2.0 8.0 0.00 0.02 0.02 79 1024.3
20260502011016 71 239 2.0 8.0 0.00 0.02 0.02 79 1024.4
20260502010515 71 15 2.0 6.0 0.00 0.02 0.02 80 1024.5
20260502010014 71 344 1.0 5.0 0.00 0.02 0.02 81 1024.5
20260502005511 70 321 1.0 6.0 0.00 0.02 0.02 82 1024.6
20260502005011 70 287 2.0 11.0 0.00 0.02 0.02 83 1024.7
20260502004510 69 311 2.0 11.0 0.00 0.02 0.02 84 1024.7
20260502004011 69 300 1.0 8.0 0.00 0.02 0.02 84 1024.8
20260502003508 69 320 1.0 5.0 0.00 0.02 0.02 86 1024.9
20260502003008 69 96 0.0 8.0 0.00 0.02 0.02 87 1025.0
20260502002508 68 117 2.0 8.0 0.00 0.02 0.02 87 1025.1
20260502002012 68 66 1.0 12.0 0.00 0.02 0.02 86 1025.1
20260502001510 69 340 2.0 12.0 0.00 0.02 0.02 85 1025.1
20260502001008 69 277 3.0 16.0 0.00 0.02 0.02 84 1025.2
20260502000507 69 290 5.0 16.0 0.00 0.02 0.02 83 1025.3
20260502000006 70 267 3.0 9.0 0.00 0.02 0.02 83 1025.2
20260501235507 69 25 0.0 6.0 0.00 0.02 0.02 84 1025.2
20260501235004 69 282 1.0 6.0 0.00 0.02 0.02 85 1025.2
20260501234505 69 270 1.0 6.0 0.00 0.02 0.02 86 1025.3
20260501234003 69 296 2.0 5.0 0.00 0.02 0.02 85 1025.2
20260501233503 69 333 1.0 4.0 0.00 0.02 0.02 87 1025.2
20260501233002 68 287 0.0 7.0 0.00 0.02 0.02 88 1025.2
20260501232602 68 355 0.0 7.0 0.00 0.02 0.02 88 1025.2
20260501232059 68 313 1.0 6.0 0.00 0.02 0.02 89 1025.1
20260501231606 68 313 1.0 4.0 0.00 0.02 0.02 90 1025.1
20260501231058 67 321 0.0 4.0 0.00 0.02 0.02 91 1025.2
20260501230556 67 292 0.0 4.0 0.00 0.02 0.02 91 1025.1
20260501230057 67 342 1.0 4.0 0.00 0.02 0.02 92 1025.0
20260501225556 66 307 1.0 3.0 0.00 0.02 0.02 92 1025.1
20260501225054 66 336 0.0 2.0 0.00 0.02 0.02 93 1025.0
20260501224607 66 336 0.0 4.0 0.00 0.02 0.02 93 1025.0
20260501224051 66 300 1.0 4.0 0.00 0.02 0.02 95 1025.0
20260501223550 65 252 1.0 4.0 0.00 0.02 0.02 95 1025.0
20260501223049 65 331 0.0 3.0 0.00 0.02 0.02 96 1025.0
20260501222552 65 308 0.0 2.0 0.00 0.02 0.02 96 1025.0
20260501222050 64 312 0.0 2.0 0.00 0.02 0.02 96 1024.9
20260501221549 64 279 0.0 2.0 0.00 0.02 0.02 96 1025.0
20260501221048 64 286 0.0 3.0 0.00 0.02 0.02 96 1025.0
20260501220548 64 325 0.0 3.0 0.00 0.02 0.02 96 1025.0
20260501220052 63 355 0.0 2.0 0.00 0.02 0.02 96 1025.0
20260501215547 63 355 0.0 1.0 0.00 0.02 0.02 96 1025.0
20260501215047 63 355 0.0 0.0 0.00 0.02 0.02 96 1025.0
20260501214547 63 355 0.0 0.0 0.00 0.02 0.02 96 1024.9
20260501214046 63 355 0.0 0.0 0.00 0.02 0.02 96 1025.0
20260501213546 63 355 0.0 2.0 0.00 0.02 0.02 96 1025.0
20260501213048 63 355 0.0 2.0 0.00 0.02 0.02 96 1025.0
20260501212547 62 355 0.0 0.0 0.00 0.02 0.02 96 1025.0
20260501212047 62 360 0.0 0.0 0.00 0.02 0.02 96 1025.0
20260501211547 62 360 0.0 0.0 0.00 0.02 0.02 96 1025.0
20260501211048 62 360 0.0 0.0 0.00 0.02 0.02 96 1025.0
20260501210545 62 360 0.0 0.0 0.00 0.02 0.02 96 1024.9
20260501210046 62 360 0.0 0.0 0.00 0.02 0.02 96 1024.9
20260501205545 62 360 0.0 0.0 0.00 0.02 0.02 96 1024.8
20260501205045 62 360 0.0 0.0 0.00 0.02 0.02 96 1024.9
20260501204544 62 360 0.0 0.0 0.00 0.02 0.02 96 1024.8
20260501204044 62 360 0.0 0.0 0.00 0.02 0.02 96 1024.8
20260501203544 62 360 0.0 0.0 0.00 0.02 0.02 96 1024.7
20260501203044 62 360 0.0 0.0 0.01 0.02 0.02 96 1024.7
20260501202544 62 360 0.0 0.0 0.01 0.02 0.02 96 1024.7
20260501202044 62 360 0.0 0.0 0.01 0.02 0.02 96 1024.7
20260501201544 62 360 0.0 0.0 0.01 0.02 0.02 96 1024.7
20260501201043 62 360 0.0 0.0 0.01 0.02 0.02 96 1024.7
20260501200544 62 360 0.0 0.0 0.01 0.02 0.02 96 1024.6
20260501200047 62 360 0.0 0.0 0.01 0.02 0.02 96 1024.6
20260501195542 62 360 0.0 0.0 0.01 0.02 0.02 96 1024.5
20260501195042 62 360 0.0 0.0 0.01 0.02 0.02 96 1024.5
20260501194553 62 360 0.0 0.0 0.01 0.02 0.02 96 1024.5
20260501194042 62 360 0.0 0.0 0.01 0.02 0.02 96 1024.4
20260501193546 62 360 0.0 0.0 0.01 0.02 0.02 96 1024.3
20260501193043 62 360 0.0 0.0 0.00 0.01 0.01 96 1024.3